Search the data

BODC Cruise Metadata Report for FRV Scotia (748S) cruise 0305S

Introduction

This report collates information from the BODC cruise inventory and oceanographic databases. It presents

Cruise Inventory Information

Long name FRV Scotia (748S) cruise 0305S
Short name 0305S
Objectives and Narrative 1. To take part in the International Bottom Trawl Survey in the North Sea.
2. To collect 50 live dogfish (Scyllium caniculus) for Aberdeen University.
3. To complete two trawl stations in the vicinity of the proposed Buzzard Field Development area.
Ship FRV Scotia
Departure Port Aberdeen, United Kingdom
Departure Date 2005-02-16
Arrival Port Aberdeen, United Kingdom
Arrival Date 2005-03-08
Principal Scientist(s) Kenneth A Coull (Fisheries Research Services Aberdeen Marine Laboratory)
Responsible Organisation Fisheries Research Services Aberdeen Marine Laboratory
Associated Project(s)
IHB Sea Areas Visited North Sea, North East Atlantic Ocean (limit 40W)
Marsden Squares Visited 181;3/216;3/217;1/252;1
Work Area Description Northern North Sea, Moray Firth, Orkney and Shetland
Work Area Bounding Polygon 55N,5W; 65N,5W; 65N,5E; 55N,5E; 55N,5W
Southern Limit 55N
Northern Limit 65N
Western Limit 5W
Eastern Limit 5E

Cruise Inventory Datasets

Physical oceanography  
CTD stations Quantity: number of stations = 63
Description:  
Biology and fisheries  
Demersal fish Quantity: number of hauls = 62
Description: GOV trawls as part of International Bottom Trawl survey  
Eggs and larvae Quantity: number of hauls = 122
Description: Methot net hauls to obtain an estimate of pre-metamorphising herring larvae.  
Pelagic fish Quantity: number of hauls = 62
Description: GOV trawls as part of International Bottom Trawl survey  

Cruise Inventory Mooring/Buoy Operations

No information on datasets is currently available

Summary of BODC Data Holdings for the Cruise

National Oceanographic Database

Summary

# Series Instrument Description Parameters
63 CTD/STD cast Chlorophyll pigment concentrations in water bodies
Electrical conductivity of the water column
Salinity of the water column
Temperature of the water column
Transmittance and attenuance of the water column
Vertical spatial coordinates

Note: Parameter terms are taken from the BODC Parameter Discovery Vocabulary XML (SKOS)

Full List

BODC Reference Instrument Description Date/Time Location  
719228 CTD/STD cast 2005-02-16 13:39Z 57° 2' N, 1° 47' W Click for more
719241 CTD/STD cast 2005-02-16 15:50Z 56° 40' N, 1° 37' W Click for more
719253 CTD/STD cast 2005-02-17 06:59Z 57° 13' N, 0° 9' E Click for more
719265 CTD/STD cast 2005-02-17 10:04Z 56° 58' N, 0° 42' E Click for more
719277 CTD/STD cast 2005-02-17 14:02Z 56° 34' N, 1° 9' E Click for more
719289 CTD/STD cast 2005-02-18 06:50Z 57° 22' N, 0° 39' W Click for more
719290 CTD/STD cast 2005-02-18 10:49Z 56° 47' N, 0° 18' W Click for more
719308 CTD/STD cast 2005-02-18 15:01Z 56° 18' N, 0° 53' W Click for more
719321 CTD/STD cast 2005-02-19 06:51Z 56° 12' N, 1° 22' W Click for more
719333 CTD/STD cast 2005-02-19 10:55Z 56° 15' N, 2° 10' W Click for more
719345 CTD/STD cast 2005-02-19 14:24Z 56° 39' N, 2° 16' W Click for more
719357 CTD/STD cast 2005-02-20 07:03Z 57° 57' N, 2° 48' W Click for more
719369 CTD/STD cast 2005-02-20 10:12Z 58° 10' N, 2° 38' W Click for more
719370 CTD/STD cast 2005-02-20 12:41Z 58° 13' N, 3° 0' W Click for more
719382 CTD/STD cast 2005-02-20 15:23Z 57° 55' N, 3° 19' W Click for more
719394 CTD/STD cast 2005-02-21 06:51Z 58° 49' N, 2° 24' W Click for more
719401 CTD/STD cast 2005-02-21 09:39Z 59° 9' N, 2° 17' W Click for more
719413 CTD/STD cast 2005-02-21 12:23Z 59° 3' N, 1° 49' W Click for more
719425 CTD/STD cast 2005-02-21 14:31Z 58° 52' N, 1° 48' W Click for more
719437 CTD/STD cast 2005-02-22 07:30Z 59° 48' N, 2° 33' W Click for more
719449 CTD/STD cast 2005-02-22 10:52Z 59° 54' N, 1° 48' W Click for more
719450 CTD/STD cast 2005-02-22 13:05Z 60° 1' N, 1° 28' W Click for more
719462 CTD/STD cast 2005-02-23 06:48Z 60° 54' N, 1° 19' W Click for more
719474 CTD/STD cast 2005-02-23 09:55Z 61° 1' N, 1° 16' W Click for more
719486 CTD/STD cast 2005-02-23 12:53Z 61° 8' N, 0° 40' W Click for more
719498 CTD/STD cast 2005-02-23 15:49Z 60° 48' N, 0° 37' W Click for more
719505 CTD/STD cast 2005-02-24 06:32Z 60° 5' N, 0° 37' W Click for more
719517 CTD/STD cast 2005-02-24 09:11Z 59° 46' N, 0° 27' W Click for more
719529 CTD/STD cast 2005-02-24 13:52Z 59° 5' N, 0° 51' W Click for more
719530 CTD/STD cast 2005-02-24 16:59Z 58° 52' N, 0° 37' W Click for more
719542 CTD/STD cast 2005-02-25 06:33Z 58° 45' N, 1° 41' W Click for more
719554 CTD/STD cast 2005-02-25 10:34Z 58° 25' N, 0° 47' W Click for more
719566 CTD/STD cast 2005-02-25 13:21Z 58° 8' N, 1° 8' W Click for more
719578 CTD/STD cast 2005-02-27 08:17Z 57° 30' N, 1° 22' W Click for more
719591 CTD/STD cast 2005-02-27 11:20Z 57° 46' N, 0° 59' W Click for more
719609 CTD/STD cast 2005-02-27 14:02Z 57° 46' N, 0° 54' W Click for more
719610 CTD/STD cast 2005-02-28 06:06Z 57° 39' N, 2° 7' E Click for more
719622 CTD/STD cast 2005-02-28 09:25Z 57° 19' N, 2° 38' E Click for more
719634 CTD/STD cast 2005-02-28 13:03Z 57° 25' N, 3° 26' E Click for more
719646 CTD/STD cast 2005-02-28 15:23Z 57° 38' N, 3° 39' E Click for more
719658 CTD/STD cast 2005-03-01 05:48Z 57° 39' N, 4° 14' E Click for more
719671 CTD/STD cast 2005-03-01 08:59Z 57° 19' N, 4° 12' E Click for more
719683 CTD/STD cast 2005-03-01 13:02Z 56° 45' N, 4° 9' E Click for more
719695 CTD/STD cast 2005-03-01 15:32Z 56° 43' N, 3° 39' E Click for more
719702 CTD/STD cast 2005-03-02 05:54Z 56° 46' N, 2° 36' E Click for more
719714 CTD/STD cast 2005-03-02 10:59Z 57° 20' N, 1° 34' E Click for more
719726 CTD/STD cast 2005-03-02 14:22Z 57° 40' N, 1° 21' E Click for more
719738 CTD/STD cast 2005-03-02 17:52Z 57° 39' N, 0° 45' E Click for more
719751 CTD/STD cast 2005-03-03 06:04Z 58° 18' N, 0° 31' E Click for more
719763 CTD/STD cast 2005-03-03 09:13Z 58° 24' N, 1° 0' E Click for more
719775 CTD/STD cast 2005-03-03 11:56Z 58° 37' N, 1° 9' E Click for more
719787 CTD/STD cast 2005-03-03 15:35Z 58° 48' N, 0° 21' E Click for more
719799 CTD/STD cast 2005-03-04 06:32Z 58° 9' N, 2° 58' E Click for more
719806 CTD/STD cast 2005-03-04 11:47Z 58° 42' N, 2° 3' E Click for more
719818 CTD/STD cast 2005-03-05 06:12Z 60° 33' N, 2° 3' E Click for more
719831 CTD/STD cast 2005-03-05 10:14Z 60° 42' N, 1° 14' E Click for more
719843 CTD/STD cast 2005-03-05 13:18Z 60° 52' N, 0° 35' E Click for more
719855 CTD/STD cast 2005-03-05 15:54Z 61° 6' N, 0° 51' E Click for more
719867 CTD/STD cast 2005-03-06 06:06Z 60° 4' N, 0° 21' W Click for more
719879 CTD/STD cast 2005-03-06 11:45Z 60° 3' N, 1° 27' W Click for more
719880 CTD/STD cast 2005-03-06 15:16Z 59° 55' N, 2° 25' W Click for more
719892 CTD/STD cast 2005-03-07 06:17Z 59° 22' N, 3° 58' W Click for more
719911 CTD/STD cast 2005-03-07 09:48Z 58° 54' N, 3° 49' W Click for more

Project Database

No data currently held for this cruise in the BODC Project Database

References

Track Charts

Track Chart

Reports

Cruise Report